[[{"header":{"parameterUnit":"m.s-1","parameterCategory":1,"la1":30.2991,"la2":30.254,"lo1":-89.0895,"lo2":-89.0444,"dy":0.0017,"dx":0.0017,"nx":28,"ny":28,"refTime":"2025-09-01T03:00:00:Z","depth":0,"parameterNumber":2,"parameterNumberName":"U-component_of_WINDS"},"data":[0,0,0,0,0,0,0,0,0,0,0,0,0,0,0,0,0,0,0,0,0,0,0,0,0,0,0,0,0,0,0,0,0,0,0,0,0,0,0,0,0,0,0,0,0,0,0,0,0,0,0,0,0,0,0,0,0,0,-1.8516,-1.8516,0,-1.8491,-1.8491,-1.8491,-1.8414,-1.8413,-1.8411,-1.8409,-1.8386,-1.8387,-1.8388,0,0,0,0,0,0,0,0,0,0,0,0,0,-1.8502,-1.8503,-1.8516,-1.8516,-1.8516,-1.8492,-1.8491,-1.8491,-1.8415,-1.8413,-1.8411,-1.8409,-1.8386,-1.8387,-1.8388,0,0,0,0,0,0,0,0,0,0,0,0,0,-1.8496,-1.8503,-1.8517,-1.8475,-1.8471,-1.8492,-1.8491,-1.8491,-1.8415,-1.8413,-1.841,-1.8408,-1.8386,-1.8387,-1.8389,-1.8448,0,0,-1.8393,-1.8394,0,0,0,0,0,0,0,0,-1.8497,-1.8497,-1.8481,-1.8478,-1.8473,-1.8453,-1.8478,-1.8477,-1.8416,-1.8436,-1.8409,-1.8406,-1.8411,-1.841,-1.8411,-1.8447,-1.8446,-1.8393,-1.8394,-1.8395,-1.8395,0,0,0,0,0,0,0,-1.8497,-1.8497,-1.8507,-1.8481,-1.8476,-1.8459,-1.8455,-1.8477,-1.8438,-1.8434,-1.8429,-1.8427,-1.8408,-1.841,-1.841,-1.8446,-1.8393,-1.8394,-1.8395,-1.8396,-1.8533,-1.8535,0,0,0,0,0,0,-1.8503,-1.8498,-1.8507,-1.8506,-1.8479,-1.8461,-1.8457,-1.8462,-1.8438,-1.8432,-1.8429,-1.8423,-1.8409,-1.8408,-1.8409,-1.8479,-1.8395,-1.8396,-1.8397,-1.853,-1.8533,-1.8536,0,0,0,0,0,0,-1.8503,-1.8505,-1.8508,-1.8501,-1.85,-1.8464,-1.8471,-1.8463,-1.8465,-1.8434,-1.8427,-1.8437,-1.8407,-1.8407,-1.8439,-1.8477,-1.8397,-1.8398,-1.8527,-1.8531,-1.8535,-1.8618,0,0,0,0,0,0,-1.8503,-1.8505,-1.8526,-1.8502,-1.85,-1.8538,-1.8473,-1.8465,-1.8467,-1.8459,-1.844,-1.8434,-1.8405,-1.8438,-1.8441,-1.8477,-1.8399,-1.8523,-1.8529,-1.8533,-1.8612,-1.8625,-1.8636,0,0,0,0,0,-1.8503,-1.8551,-1.8528,-1.8529,-1.8526,-1.8541,-1.854,-1.8504,-1.847,-1.8492,-1.8473,-1.8435,-1.8472,-1.8442,-1.8445,-1.8482,-1.8521,-1.8527,-1.8533,-1.8607,-1.8622,-1.8635,0,0,0,0,0,0,-1.8581,-1.8546,-1.8521,-1.8562,-1.8555,-1.8528,-1.8554,-1.8522,-1.8525,-1.8517,-1.8474,-1.847,-1.851,-1.8499,-1.8466,-1.854,-1.849,-1.8498,-1.8545,-1.856,-1.8572,-1.8573,-1.84,0,0,0,0,0,-1.8603,-1.8616,-1.8586,-1.8626,-1.8623,-1.859,-1.8595,-1.8568,-1.8559,-1.8556,-1.8539,-1.8533,-1.8543,-1.8551,-1.8559,-1.861,-1.8606,-1.8638,-1.865,-1.866,-1.8666,-1.8695,-1.871,-1.8557,-1.8557,-1.8557,0,0,-1.8648,-1.8631,-1.8642,-1.8641,-1.8632,-1.8649,-1.8587,-1.8607,-1.8619,-1.8559,-1.8589,-1.8577,-1.8567,-1.861,-1.8628,-1.8603,-1.8708,-1.8668,-1.8676,-1.8677,-1.8703,-1.8718,-1.8731,-1.8561,-1.856,-1.856,0,0,-1.874,-1.8728,-1.876,-1.8753,-1.8741,-1.8718,-1.8727,-1.8705,-1.8694,-1.8723,-1.8679,-1.8694,-1.8713,-1.8708,-1.8709,-1.8802,-1.8768,-1.8806,-1.8868,-1.8897,-1.8909,-1.8919,-1.8954,-1.8967,-1.8813,-1.8813,-1.8813,0,-1.8798,-1.882,-1.8781,-1.8804,-1.8805,-1.8752,-1.8785,-1.8781,-1.8772,-1.8775,-1.8747,-1.8771,-1.876,-1.8803,-1.8826,-1.8827,-1.8837,-1.8808,-1.891,-1.892,-1.8929,-1.8962,-1.8975,-1.8818,-1.8817,-1.8817,-1.8816,0,-1.8893,-1.891,-1.8937,-1.8931,-1.8935,-1.8964,-1.893,-1.894,-1.8914,-1.8896,-1.8928,-1.8914,-1.8919,-1.8927,-1.8902,-1.8967,-1.8952,-1.8917,-1.8866,-1.8949,-1.898,-1.8992,-1.8825,-1.8823,-1.8821,-1.882,0,0,-1.9031,-1.9004,-1.9015,-1.9012,-1.8996,-1.9009,-1.9036,-1.9041,-1.9051,-1.9048,-1.9071,-1.9089,-1.9058,-1.9058,-1.9032,-1.9057,-1.9135,-1.902,-1.9019,-1.9043,-1.9209,-1.9235,-1.925,-1.9112,-1.9114,-1.9116,-1.921,0,-1.9119,-1.9162,-1.9129,-1.9179,-1.9195,-1.9146,-1.917,-1.9164,-1.9148,-1.9161,-1.9143,-1.9158,-1.9114,-1.9115,-1.9137,-1.9121,-1.9168,-1.9113,-1.9135,-1.9136,-1.9139,-1.9266,-1.9293,-1.9382,-1.9221,-1.9223,-1.9225,0,-1.9226,-1.9228,-1.928,-1.9263,-1.9268,-1.929,-1.9293,-1.9305,-1.9299,-1.9285,-1.9288,-1.9256,-1.9283,-1.9234,-1.9272,-1.9236,-1.9243,-1.9237,-1.924,-1.924,-1.9186,-1.9271,-1.9409,-1.9423,-1.9242,-1.9241,-1.924,0,-1.9324,-1.9339,-1.9373,-1.9372,-1.9352,-1.9369,-1.9362,-1.9353,-1.9359,-1.9362,-1.9366,-1.9373,-1.9377,-1.9384,-1.9355,-1.9322,-1.9399,-1.9346,-1.939,-1.9391,-1.9408,-1.9408,-1.9551,-1.9412,-1.9412,-1.9412,-1.9411,0,-1.9425,-1.9459,-1.9417,-1.9437,-1.9475,-1.9438,-1.9476,-1.9464,-1.9457,-1.9476,-1.9434,-1.9453,-1.9414,-1.943,-1.9408,-1.9445,-1.9447,-1.9438,-1.9432,-1.9442,-1.9443,-1.9446,-1.944,-1.9415,-1.9414,-1.9414,-1.9413,0,-1.954,-1.9512,-1.9546,-1.9525,-1.9521,-1.955,-1.9533,-1.9552,-1.9535,-1.9559,-1.9563,-1.9536,-1.9552,-1.9525,-1.9538,-1.9524,-1.9575,-1.9559,-1.9577,-1.9573,-1.9619,-1.9615,-1.9769,-1.9788,-1.9637,-1.9639,-1.964,0,-1.9607,-1.9632,-1.9614,-1.9624,-1.9619,-1.9635,-1.9641,-1.9606,-1.9614,-1.961,-1.9631,-1.9644,-1.9652,-1.9682,-1.9664,-1.9675,-1.9659,-1.9713,-1.9661,-1.9671,-1.9662,-1.9661,-1.9664,-1.9723,-1.9725,-1.9727,-1.9728,0,-1.9729,-1.9714,-1.9724,-1.973,-1.9739,-1.9742,-1.9742,-1.9753,-1.9717,-1.9729,-1.9745,-1.9752,-1.9766,-1.9781,-1.9787,-1.9782,-1.975,-1.9745,-1.9756,-1.9766,-1.9776,-1.9773,-1.9607,-1.9741,-1.974,-1.9739,-1.9738,-1.9738,-1.9822,-1.9843,-1.9834,-1.9848,-1.9844,-1.9846,-1.9864,-1.9849,-1.9862,-1.987,-1.985,-1.9872,-1.9867,-1.9873,-1.9871,-1.9889,-1.9866,-1.9881,-1.9886,-1.989,-1.9898,-1.9773,-1.989,-1.989,-1.9889,-1.9889,-1.9889,0,-1.9943,-1.9935,-1.9948,-1.995,-1.9961,-1.993,-1.9929,-1.9941,-1.9961,-1.9959,-1.9968,-1.9989,-2.0003,-1.9988,-2.0,-2.0017,-2.0003,-2.0022,-2.0021,-2.002,-1.9917,-1.9907,-2.0033,-2.0033,-2.0033,-2.0033,-2.0033,-2.0033,-2.0007,-2.0041,-2.0026,-2.006,-2.0052,-2.0073,-2.0076,-2.0079,-2.0077,-2.0101,-2.0113,-2.0103,-2.0096,-2.0108,-2.012,-2.0116,-2.0123,-2.0147,-2.0137,-2.0041,-2.0027,-2.0014,-2.0004,-2.0148,-2.0148,-2.0238,-2.0239,-2.024]},{"header":{"parameterUnit":"m.s-1","parameterCategory":1,"la1":30.2991,"la2":30.254,"lo1":-89.0895,"lo2":-89.0444,"dy":0.0017,"dx":0.0017,"nx":28,"ny":28,"refTime":"2025-09-01T03:00:00:Z","depth":0,"parameterNumber":3,"parameterNumberName":"V-component_of_WINDS"},"data":[0,0,0,0,0,0,0,0,0,0,0,0,0,0,0,0,0,0,0,0,0,0,0,0,0,0,0,0,0,0,0,0,0,0,0,0,0,0,0,0,0,0,0,0,0,0,0,0,0,0,0,0,0,0,0,0,0,0,2.39,2.3899,0,2.3814,2.3813,2.3812,2.379,2.3791,2.3791,2.3792,2.3696,2.3693,2.369,0,0,0,0,0,0,0,0,0,0,0,0,0,2.4039,2.4036,2.39,2.3899,2.3898,2.3814,2.3813,2.3812,2.379,2.3791,2.3791,2.3792,2.3697,2.3693,2.369,0,0,0,0,0,0,0,0,0,0,0,0,0,2.3968,2.4035,2.39,2.3877,2.3874,2.3815,2.3813,2.3812,2.379,2.3791,2.3792,2.3792,2.3698,2.3694,2.3689,2.3644,0,0,2.3675,2.3673,0,0,0,0,0,0,0,0,2.3972,2.3963,2.3882,2.3879,2.3875,2.3814,2.3827,2.3755,2.379,2.3822,2.3792,2.3793,2.3734,2.3726,2.3708,2.3639,2.3635,2.3675,2.3672,2.367,2.3669,0,0,0,0,0,0,0,2.3977,2.3966,2.3866,2.388,2.3877,2.3869,2.386,2.3813,2.3774,2.3819,2.3817,2.3808,2.3732,2.3713,2.3706,2.3634,2.3675,2.3671,2.3668,2.3666,2.3522,2.3521,0,0,0,0,0,0,2.3987,2.3971,2.3869,2.3863,2.3927,2.3866,2.3856,2.3833,2.3774,2.3767,2.3807,2.3807,2.372,2.3711,2.3702,2.3644,2.367,2.3666,2.3663,2.3523,2.3522,2.3521,0,0,0,0,0,0,2.399,2.3978,2.3872,2.3917,2.3903,2.3863,2.3837,2.383,2.3811,2.3766,2.3758,2.3795,2.3721,2.3709,2.3659,2.3641,2.3664,2.3659,2.3525,2.3523,2.3522,2.3529,0,0,0,0,0,0,2.3994,2.3979,2.3963,2.3916,2.39,2.3832,2.3836,2.3828,2.3804,2.3803,2.3752,2.3744,2.372,2.3666,2.3654,2.3635,2.3656,2.3526,2.3524,2.3522,2.353,2.3528,2.3526,0,0,0,0,0,2.3999,2.3967,2.3962,2.395,2.388,2.3831,2.3822,2.3797,2.3803,2.3785,2.3756,2.3746,2.3646,2.3661,2.3648,2.3627,2.3527,2.3525,2.3522,2.3531,2.3528,2.3526,0,0,0,0,0,0,2.401,2.396,2.3955,2.3907,2.3874,2.3828,2.3804,2.3795,2.3757,2.3758,2.3727,2.3715,2.3667,2.3642,2.366,2.3579,2.3586,2.3581,2.3597,2.3594,2.3592,2.3597,2.3652,0,0,0,0,0,2.4007,2.3974,2.3932,2.3894,2.3878,2.3845,2.3822,2.3807,2.377,2.3755,2.3722,2.3684,2.3644,2.3618,2.3579,2.3527,2.3514,2.3506,2.3504,2.3503,2.3497,2.3467,2.3462,2.3513,2.3513,2.3513,0,0,2.4,2.3969,2.395,2.3896,2.3868,2.3832,2.3832,2.3794,2.3767,2.3748,2.3699,2.3674,2.363,2.3579,2.3555,2.3556,2.3481,2.35,2.3499,2.3494,2.3464,2.3459,2.3455,2.3512,2.3512,2.3512,0,0,2.3969,2.3944,2.3908,2.3881,2.3841,2.3819,2.381,2.3766,2.3749,2.37,2.3685,2.3651,2.3583,2.3552,2.3527,2.3486,2.3474,2.3474,2.3462,2.3432,2.3428,2.3424,2.3407,2.3402,2.347,2.347,2.347,0,2.3964,2.3912,2.3891,2.3854,2.383,2.3815,2.3777,2.3752,2.3699,2.3681,2.3685,2.36,2.3569,2.351,2.35,2.3482,2.3469,2.3478,2.3431,2.3427,2.3423,2.3406,2.34,2.347,2.347,2.347,2.347,0,2.3908,2.3872,2.3848,2.38,2.3774,2.3737,2.3708,2.3683,2.3671,2.3648,2.3597,2.3561,2.3513,2.3499,2.3485,2.3437,2.3439,2.3438,2.3443,2.3419,2.3402,2.3396,2.347,2.347,2.347,2.347,0,0,2.3878,2.3821,2.3812,2.379,2.3744,2.3715,2.3677,2.3633,2.3611,2.3576,2.3542,2.3486,2.3484,2.3456,2.3439,2.3414,2.3381,2.3415,2.3413,2.3408,2.3324,2.3323,2.3316,2.3375,2.3374,2.3373,2.3326,0,2.3839,2.3773,2.3753,2.3696,2.3661,2.3647,2.3614,2.3581,2.3559,2.3525,2.35,2.346,2.3462,2.3445,2.342,2.3391,2.3363,2.3394,2.3339,2.3337,2.3348,2.3308,2.3307,2.3265,2.332,2.3319,2.3318,0,2.3783,2.375,2.369,2.3649,2.3634,2.3605,2.3563,2.3531,2.3493,2.3479,2.3449,2.3435,2.3392,2.3403,2.3343,2.3364,2.3341,2.3323,2.3321,2.3312,2.3324,2.3295,2.3251,2.3244,2.3309,2.3309,2.331,0,2.3764,2.3704,2.3661,2.3642,2.3594,2.3574,2.3552,2.3516,2.3491,2.3454,2.3437,2.3395,2.3371,2.3338,2.3311,2.3322,2.3252,2.3261,2.3237,2.3237,2.3219,2.322,2.3168,2.321,2.321,2.321,2.321,0,2.3721,2.3684,2.3651,2.3624,2.3582,2.356,2.3518,2.3496,2.3464,2.343,2.3416,2.3384,2.3353,2.3317,2.3296,2.3248,2.3238,2.3223,2.3217,2.3222,2.3224,2.3204,2.3205,2.3209,2.3209,2.3209,2.321,0,2.3691,2.3668,2.3619,2.3579,2.3567,2.3538,2.3502,2.3474,2.3453,2.3411,2.3399,2.3365,2.3321,2.3293,2.3237,2.3223,2.317,2.3166,2.3183,2.3179,2.3155,2.3157,2.3086,2.3074,2.3127,2.3127,2.3126,0,2.3663,2.3635,2.3592,2.357,2.3549,2.3513,2.3488,2.3466,2.344,2.3396,2.3372,2.3329,2.3292,2.3223,2.3191,2.3148,2.3141,2.312,2.3134,2.314,2.3137,2.3138,2.3134,2.3116,2.3116,2.3115,2.3115,0,2.3615,2.3606,2.3571,2.3533,2.3505,2.3473,2.3441,2.3423,2.3395,2.3366,2.3323,2.3295,2.3239,2.3195,2.315,2.3125,2.3114,2.3112,2.3103,2.3106,2.3116,2.3107,2.3173,2.3112,2.3112,2.3113,2.3113,2.3113,2.3583,2.3557,2.3523,2.3485,2.346,2.343,2.3402,2.3379,2.3343,2.3297,2.3286,2.324,2.3203,2.3141,2.3116,2.3078,2.308,2.3068,2.3064,2.3061,2.3059,2.3125,2.307,2.307,2.307,2.307,2.307,0,2.3532,2.351,2.3476,2.3433,2.3403,2.34,2.3364,2.3338,2.3299,2.3267,2.3232,2.3182,2.314,2.3106,2.3062,2.3038,2.3032,2.3026,2.3026,2.302,2.3061,2.3072,2.3032,2.3032,2.3032,2.3032,2.3032,2.3032,2.3501,2.3456,2.3443,2.3385,2.3363,2.332,2.3299,2.3272,2.3246,2.3191,2.3157,2.3137,2.3103,2.3056,2.3016,2.3007,2.299,2.2986,2.2975,2.3013,2.3017,2.3021,2.3031,2.2983,2.2983,2.2936,2.2936,2.2935]}]]